EW6786 Weather Reports


time (UTC)temp
C
wind
direction
speed
KPH
gust
KPH
rain 1hr
cm
rain 24hr
cm
rain mn
cm
humidity
%
barometer
mb
20190425020017 10 202 37.0 45.1 0.00 0.00 0.00 61 1013.5
20190425015017 10 202 35.4 41.8 0.00 0.00 0.00 61 1013.7
20190425014017 10 202 35.4 43.5 0.00 0.00 0.00 63 1013.4
20190425013017 10 202 37.0 46.7 0.00 0.00 0.00 63 1013.5
20190425012017 10 202 35.4 45.1 0.00 0.00 0.00 63 1013.3
20190425011017 10 202 38.6 48.3 0.00 0.00 0.00 63 1013.3
20190425010017 10 202 40.2 51.5 0.00 0.00 0.00 63 1013.3
20190425005016 10 202 38.6 48.3 0.00 0.00 0.00 63 1013.6
20190425004017 10 202 38.6 51.5 0.00 0.00 0.00 65 1013.5
20190425003017 10 202 35.4 45.1 0.00 0.00 0.00 64 1013.5
20190425002017 10 202 37.0 48.3 0.00 0.00 0.00 64 1013.4
20190425001017 10 202 35.4 46.7 0.00 0.00 0.00 65 1013.3
20190425000017 10 202 40.2 51.5 0.00 0.00 0.00 64 1013.2
20190424235016 10 202 38.6 48.3 0.00 0.00 0.00 65 1012.8
20190424234031 10 202 37.0 49.9 0.00 0.00 0.00 66 1013.1
20190424233016 10 202 40.2 51.5 0.00 0.00 0.00 66 1013.1
20190424232016 10 202 38.6 54.7 0.00 0.00 0.00 65 1013.0
20190424231016 10 202 38.6 62.8 0.00 0.00 0.00 64 1012.7
20190424230016 10 202 40.2 53.1 0.00 0.00 0.00 64 1012.7
20190424225016 10 202 38.6 64.4 0.00 0.00 0.00 64 1012.7
20190424224016 10 202 38.6 61.2 0.00 0.00 0.00 64 1012.9
20190424223016 10 202 35.4 56.3 0.00 0.00 0.00 67 1013.0
20190424222016 10 202 35.4 49.9 0.00 0.00 0.00 68 1012.8
20190424221016 10 202 35.4 48.3 0.00 0.00 0.00 67 1012.4
20190424220016 10 202 33.8 45.1 0.00 0.00 0.00 68 1012.5
20190424215015 10 202 33.8 45.1 0.00 0.00 0.00 68 1012.6
20190424214015 10 202 35.4 45.1 0.00 0.00 0.00 68 1012.2
20190424213016 10 202 33.8 48.3 0.00 0.00 0.00 69 1012.2
20190424212015 10 202 33.8 48.3 0.00 0.00 0.00 69 1012.3
20190424211015 10 202 35.4 48.3 0.00 0.00 0.00 69 1012.1
20190424210016 10 202 38.6 56.3 0.00 0.00 0.00 68 1011.8
20190424205015 10 202 35.4 51.5 0.00 0.00 0.00 68 1011.8
20190424204015 10 202 33.8 51.5 0.00 0.00 0.00 70 1011.8
20190424203015 10 202 32.2 56.3 0.00 0.00 0.00 71 1011.8
20190424202015 10 202 35.4 51.5 0.00 0.00 0.00 71 1011.9
20190424201015 10 202 33.8 49.9 0.00 0.00 0.00 71 1012.0
20190424200015 10 202 37.0 54.7 0.00 0.00 0.00 71 1011.8
20190424195015 10 202 29.0 43.5 0.00 0.00 0.00 71 1011.9
20190424194015 10 202 32.2 49.9 0.00 0.00 0.00 72 1011.9
20190424193015 10 202 27.4 40.2 0.00 0.00 0.00 73 1011.8
20190424192015 10 202 29.0 48.3 0.00 0.00 0.00 73 1012.0
20190424191015 10 202 29.0 45.1 0.00 0.00 0.00 72 1012.0
20190424190015 10 202 30.6 53.1 0.00 0.00 0.00 72 1011.7
20190424185015 10 202 27.4 48.3 0.00 0.00 0.00 73 1011.7
20190424184015 10 202 27.4 45.1 0.00 0.00 0.00 73 1011.4
20190424183015 10 202 30.6 45.1 0.00 0.00 0.00 73 1011.2
20190424182015 10 202 32.2 49.9 0.00 0.00 0.00 72 1011.2
20190424181018 10 202 29.0 49.9 0.00 0.00 0.00 72 1011.6
20190424180017 10 202 30.6 45.1 0.00 0.00 0.00 72 1011.5
20190424175017 10 202 30.6 53.1 0.00 0.00 0.00 72 1011.5
20190424174017 10 202 32.2 59.5 0.00 0.00 0.00 72 1011.3
20190424173017 10 202 32.2 54.7 0.00 0.00 0.00 71 1011.3
20190424172017 11 202 32.2 53.1 0.00 0.00 0.00 70 1011.3
20190424171017 11 202 29.0 54.7 0.00 0.00 0.00 71 1011.4
20190424170017 11 202 29.0 49.9 0.00 0.00 0.00 70 1012.1
20190424165017 11 202 27.4 56.3 0.00 0.00 0.00 69 1011.8
20190424164017 11 202 29.0 62.8 0.00 0.00 0.00 68 1011.9
20190424163017 11 202 33.8 49.9 0.00 0.00 0.00 68 1011.9
20190424162020 11 202 37.0 56.3 0.00 0.00 0.00 67 1012.0
20190424161017 11 202 30.6 45.1 0.00 0.00 0.00 68 1012.3
20190424160017 11 180 30.6 49.9 0.00 0.00 0.00 69 1012.6
20190424155017 11 202 30.6 54.7 0.00 0.00 0.00 68 1012.4
20190424154017 12 202 33.8 49.9 0.00 0.00 0.00 66 1012.6
20190424153017 12 202 32.2 51.5 0.00 0.00 0.00 66 1012.4
20190424152017 12 202 32.2 56.3 0.00 0.00 0.00 65 1012.7
20190424151017 12 202 33.8 53.1 0.00 0.00 0.00 64 1012.6
20190424150016 12 202 33.8 51.5 0.00 0.00 0.00 65 1012.7
20190424145017 12 202 35.4 51.5 0.00 0.00 0.00 63 1012.6
20190424144017 12 202 32.2 48.3 0.00 0.00 0.00 65 1013.0
20190424143017 13 202 35.4 49.9 0.00 0.00 0.00 64 1012.7
20190424142016 13 202 30.6 49.9 0.00 0.00 0.00 64 1013.1
20190424141016 12 202 32.2 53.1 0.00 0.00 0.00 65 1013.0
20190424140017 13 202 30.6 45.1 0.00 0.00 0.00 64 1013.3
20190424135016 13 202 29.0 45.1 0.00 0.00 0.00 64 1013.0
20190424134017 13 202 27.4 41.8 0.00 0.00 0.00 65 1013.1
20190424133030 13 202 30.6 51.5 0.00 0.00 0.00 64 1013.5
20190424132016 13 202 25.7 43.5 0.00 0.00 0.00 63 1013.5
20190424131016 13 202 29.0 49.9 0.00 0.00 0.00 63 1013.3
20190424130016 13 202 29.0 45.1 0.00 0.00 0.00 62 1013.0
20190424125016 13 202 30.6 45.1 0.00 0.00 0.00 64 1012.9
20190424124016 13 202 29.0 45.1 0.00 0.00 0.00 63 1013.1
20190424123016 13 202 29.0 48.3 0.00 0.00 0.00 62 1013.2
20190424122016 13 202 27.4 41.8 0.00 0.00 0.00 63 1013.1
20190424121016 13 202 24.1 41.8 0.00 0.00 0.00 61 1013.1
20190424120016 13 202 24.1 35.4 0.00 0.00 0.00 61 1013.3
20190424115016 13 180 17.7 32.2 0.00 0.00 0.00 63 1013.5
20190424114016 13 202 20.9 35.4 0.00 0.00 0.00 63 1013.1
20190424113016 13 202 20.9 41.8 0.00 0.00 0.00 63 1013.0
20190424112016 13 202 22.5 43.5 0.00 0.00 0.00 64 1013.1
20190424111016 13 202 22.5 41.8 0.00 0.00 0.00 62 1013.0
20190424110016 13 202 22.5 40.2 0.00 0.00 0.00 63 1012.9
20190424105016 13 202 25.7 41.8 0.00 0.00 0.00 62 1013.0
20190424104016 12 202 24.1 40.2 0.00 0.00 0.00 63 1012.7
20190424103016 12 202 20.9 32.2 0.00 0.00 0.00 66 1012.7
20190424102016 12 202 22.5 37.0 0.00 0.00 0.00 66 1012.8
20190424101016 12 202 19.3 37.0 0.00 0.00 0.00 66 1012.9
20190424100016 12 202 27.4 43.5 0.00 0.00 0.00 67 1012.7
20190424095016 12 202 25.7 41.8 0.00 0.00 0.00 68 1012.7
20190424094016 12 202 27.4 41.8 0.00 0.00 0.00 68 1012.6
20190424093016 12 202 24.1 40.2 0.00 0.00 0.00 68 1012.6
20190424092016 11 202 25.7 38.6 0.00 0.00 0.00 67 1012.7
20190424091016 11 202 22.5 54.7 0.00 0.00 0.00 68 1012.2
20190424090016 11 202 25.7 43.5 0.00 0.00 0.00 69 1012.2
20190424085016 11 202 29.0 41.8 0.00 0.00 0.00 70 1011.7
20190424084016 10 202 30.6 49.9 0.00 0.00 0.00 73 1011.7
20190424083016 10 202 30.6 48.3 0.00 0.00 0.00 73 1011.6
20190424082016 10 202 27.4 43.5 0.00 0.00 0.00 74 1011.7
20190424081016 10 202 27.4 46.7 0.00 0.00 0.00 74 1011.4
20190424080016 10 202 25.7 51.5 0.00 0.00 0.00 74 1011.5
20190424075016 10 202 25.7 61.2 0.00 0.00 0.00 74 1011.3
20190424074015 10 202 24.1 38.6 0.00 0.00 0.00 75 1011.3
20190424073016 10 180 22.5 41.8 0.00 0.00 0.00 74 1011.5
20190424072016 9 180 20.9 41.8 0.00 0.00 0.00 74 1011.2
20190424071016 9 202 19.3 40.2 0.00 0.00 0.00 76 1011.2
20190424070016 9 180 24.1 38.6 0.00 0.00 0.00 76 1010.7
20190424065016 8 180 27.4 51.5 0.00 0.00 0.00 75 1010.5
20190424064016 8 180 20.9 41.8 0.00 0.00 0.00 76 1010.5
20190424063015 8 202 29.0 45.1 0.00 0.00 0.00 75 1010.1
20190424062016 8 202 29.0 43.5 0.00 0.00 0.00 74 1010.0
20190424061110 8 202 43.5 66.0 0.00 0.00 0.00 73 1010.0
20190424060015 9 202 45.1 80.5 0.00 0.00 0.00 71 1009.7
20190424055015 8 202 30.6 48.3 0.00 0.00 0.00 75 1009.5
20190424054015 8 202 29.0 46.7 0.00 0.00 0.00 78 1009.4
20190424053015 8 202 33.8 51.5 0.00 0.00 0.00 78 1009.1
20190424052015 7 202 33.8 48.3 0.00 0.00 0.00 79 1009.0
20190424051016 7 202 32.2 49.9 0.00 0.00 0.00 80 1008.8
20190424050015 7 180 27.4 51.5 0.00 0.00 0.00 80 1008.7
20190424045015 7 180 30.6 59.5 0.00 0.00 0.00 80 1008.9
20190424044018 7 180 30.6 48.3 0.00 0.00 0.00 81 1008.5
20190424043015 7 180 32.2 64.4 0.00 0.00 0.00 82 1008.4
20190424042015 7 180 33.8 59.5 0.00 0.00 0.00 81 1008.4
20190424041015 7 180 30.6 51.5 0.00 0.00 0.00 81 1008.6
20190424040015 7 180 30.6 48.3 0.00 0.00 0.00 81 1008.4
20190424035015 7 180 27.4 46.7 0.00 0.00 0.00 80 1008.4
20190424034015 7 202 27.4 45.1 0.00 0.00 0.00 80 1008.4
20190424033015 7 202 29.0 43.5 0.00 0.00 0.00 81 1008.3
20190424032015 7 202 30.6 48.3 0.00 0.00 0.00 81 1008.7
20190424031015 7 180 29.0 41.8 0.00 0.00 0.00 82 1008.7
20190424030015 7 202 33.8 61.2 0.00 0.00 0.00 81 1008.5
20190424025017 7 202 32.2 48.3 0.00 0.00 0.00 83 1008.5
20190424024017 7 180 33.8 53.1 0.00 0.00 0.00 83 1008.2
20190424023017 7 202 29.0 45.1 0.00 0.00 0.00 84 1008.4
20190424022017 7 202 33.8 46.7 0.00 0.00 0.00 84 1008.3
20190424021017 7 202 35.4 51.5 0.00 0.00 0.00 83 1007.9